Regional Weather Roundup
Issued by NWS Cleveland, OH

Home | Current Version | Previous Version | Graphics & Text | Print | Product List | Glossary On
Versions: 1 2 3 4 5 6 7 8 9 10 11 12 13 14 15 16 17 18 19 20 21 22 23 24 25 26 27 28 29 30 31 32 33 34 35 36 37 38 39 40 41 42 43 44 45 46 47 48 49 50
000
ASUS41 KCLE 011210
RWRCLE
OHIO REGIONAL WEATHER ROUNDUP
NATIONAL WEATHER SERVICE CLEVELAND, OH
800 AM EDT FRI AUG 01 2014

NOTE: "FAIR" INDICATES FEW OR NO CLOUDS BELOW 12,000 FEET WITH NO
SIGNIFICANT WEATHER AND/OR OBSTRUCTIONS TO VISIBILITY.

OHZ001>008-015>018-024>027-034-035-043-044-011300-
   NORTHWEST OHIO

CITY           SKY/WX    TMP DP  RH WIND       PRES   REMARKS
DEFIANCE       SUNNY     64  60  87 SW3       30.12R
FINDLAY        SUNNY     63  59  87 CALM      30.12R
TOLEDO EXPRESS SUNNY     63  60  90 W5        30.11R
TOLEDO EXEC    MOSUNNY   66  59  78 SW5       30.12R
LIMA           SUNNY     64  59  83 CALM      30.13R
$$

OHZ009>014-019>023-028>033-038-089-011300-
   NORTHEAST OHIO

CITY           SKY/WX    TMP DP  RH WIND       PRES   REMARKS
CLE-HOPKINS    PTSUNNY   67  58  72 S7        30.15R
CLE-LAKEFRONT  MOSUNNY   68  58  70 S3        30.11R
CUY CO. ARPT   PTSUNNY   68  61  77 S7        30.13R
LORAIN-ELYRIA  CLOUDY    66  59  78 SW3       30.14R
ASHTABULA      SUNNY     63  59  87 S5        30.15R
AKRON-CANTON   SUNNY     65  60  84 S3        30.15R HAZE
WOOSTER        SUNNY     60  58  92 CALM      30.16R FOG
MANSFIELD      SUNNY     63  60  90 CALM      30.15R
YOUNGSTOWN     PTSUNNY   63  60  90 SE3       30.16R
$$

OHZ042-051>053-060>062-070>072-077>081-011300-
  SOUTHWEST OHIO

CITY           SKY/WX    TMP DP  RH WIND       PRES   REMARKS
CINC-COVINGTON MOSUNNY   64  62  93 CALM      30.12S
CINC-LUNKEN    FOG       63  61  93 CALM      30.13R VSB 1/2
HAMILTON       SUNNY     63  62  97 CALM      30.13S FOG
DAYTON         MOSUNNY   64  60  87 CALM      30.15R FOG
WRIGHT-PAT AFB MOSUNNY   63  61  93 CALM      30.13R
DAYTON GENERAL PTSUNNY   65  61  87 CALM      30.13R
WILMINGTON     SUNNY     64  61  90 CALM      30.13R FOG
$$

OHZ036-037-039>041-045>050-054>059-063>069-073>076-082>088-011300-
  CENTRAL AND SOUTHEAST OHIO

CITY           SKY/WX    TMP DP  RH WIND       PRES   REMARKS
COLUMBUS       MOSUNNY   68  61  78 CALM      30.13R HAZE
OSU AIRPORT    MOSUNNY   64  62  93 CALM      30.14R FOG
BOLTON FIELD   PTSUNNY   63  63 100 CALM      30.14R FOG
RICKENBACK AFB SUNNY     63  58  84 CALM      30.13R HAZE
NEWARK         SUNNY     62  60  93 CALM      30.14R FOG
MARION         SUNNY     62  59  90 CALM      30.14R FOG
LANCASTER      MOSUNNY   63  61  93 CALM      30.14R FOG
ZANESVILLE     MOSUNNY   63  59  87 N3        30.15R FOG
NEW PHILLY     SUNNY     61  60  97 CALM      30.16R FOG
$$


USA.gov is the U.S. government's official web portal to all federal, state and local government web resources and services.